IRIDIUM 33 DEB, 33870

Orbit data source: Space-Track

IRIDIUM 33 DEB, 33870 is space debris in LEO originally from a launch on Sun, 14 Sep 1997 UTC launched from the Tyuratam Missile And Space Complex (TTMTR). The debris from Iridium 33, an American commercial communications satellite, has been tracked extensively since its accidental collision with the defunct Russian satellite Cosmos 2251 in 2009. This event, occurring at high speed in low Earth orbit (LEO), generated thousands of pieces of space debris, significantly increasing the risk of further collisions. The Iridium 33 debris cloud has impacted space traffic management and orbital debris mitigation strategies, making it a subject of ongoing study in space situational awareness.

Loading next visibility...
Identifier
33870, 1997-051AP
Orbit
LEO
Country
Flag of USUS
Related business
Manufacturer
Unknown
Mission
Spacecraft
Bus & Motor
Unknown
Mass
Unknown
Launch date (UTC)
1997-09-14 (28 years ago)
Launch vehicle
Unknown
Launch site
Tyuratam Missile And Space Complex (TTMTR)
Object type
Payload
Rocket body
Debris
Shape & HBR
Unknown shape, 0.1 m
Radar Cross Section
Small (<0.1 m²)

Expand to show TLE details & history
Last TLE update: 1 day ago

TLE from 1 day ago
0 IRIDIUM 33 DEB
1 33870U 97051AP  25350.21700322  .00002030  00000-0  56447-3 0  9999
2 33870  86.3748  56.7702 0021886 166.7882 247.4368 14.45870767881874
Epoch: 2025-12-16T05:12Z
TLE epoch observation values (Epoch: 2025-12-16T05:12:29.078Z)
Latitude
53.93542°
Longitude
-101.49125°
Altitude
754.133 km
Speed
7.479 km/s
True Right ascension
04h 06m 56s
True Declination
53° 46' 17"
Sunlit
Object was in full shadow at epoch
Visualization orbit readout
Latitude
Unknown
Longitude
Unknown
Altitude
Unknown
Speed
Unknown
Apparent Right ascension
Unknown
Apparent Declination
Unknown
Sunlit
N/A
Visualization observer readout
Local Sidereal Time
10:16:14
Azimuth
Unknown
Elevation
Unknown
Doppler factor
Unknown
Orbital elements
Apogee altitude
751.686 km
Perigee altitude
720.545 km
Semi-major axis
7,114.253 km
Eccentricity
0.00219
Inclination
86.3748°
RAAN
56.7702°
Arg. of periapsis
166.7882°
True anomaly
247.20545°
Mean anomaly
247.4368°
Eccentric anomaly
247.3211°
Mean motion
3.61701 °/min
Orbital period
99.53 mins
BSTAR
0.00056447
Loading maneuver chart data...
Computing Atmospheric mass density...

Documentation

Showing up to 5 results
|